METEOR PRIRODA

Last updated on Thu Nov 20 2025 00:02:46 GMT+0000 (Coordinated Universal Time)

1 12585U 81065A 25323.79819012 .05427087 25897-5 43530-3 0 9990 2 12585 97.4523 29.5356 0007881 258.0011 102.0405 16.40029458427132

Satellite not in orbit

METEOR PRIRODA